Location: Malvern Link
(52.1333°N, 2.3000°W)
Time: 03:33:23
(UTC+00:00)

Cosmos 1634 Rocket - Pass Details

Date: 30 November 2021
Orbit: 959 x 993 km, 82.9° (Epoch: 21 January)

Event Time Altitude Azimuth Distance (km) Brightness Sun altitude
Rises 17:38:53 0° 165° (SSE) 3,692 7.1 -14.2°
Reaches altitude 10° 17:41:29 10° 159° (SSE) 2,750 6.3 -14.6°
Maximum altitude 17:47:25 45° 89° (E) 1,333 4.3 -15.4°
Drops below altitude 10° 17:53:24 10° 20° (NNE) 2,769 6.1 -16.3°
Sets 17:56:02 0° 14° (NNE) 3,721 6.8 -16.7°
